Regional Weather Roundup
Issued by NWS

Home | Current Version | Previous Version | Text Only | Print | Product List | Glossary Off
Versions: 1 2 3 4 5 6 7 8 9 10 11 12 13 14 15 16 17 18 19 20 21 22 23 24 25 26 27 28 29 30 31 32 33 34 35 36 37 38 39 40 41 42 43 44 45 46 47 48 49 50

415
ASUS44 KLIX 312301
RWRLA
LOUISIANA WEATHER ROUNDUP
NATIONAL WEATHER SERVICE NEW ORLEANS LA
600 PM CDT SUN AUG 31 2014

NOTE: "FAIR" INDICATES FEW OR NO CLOUDS BELOW 12,000 FEET WITH NO
      SIGNIFICANT WEATHER AND/OR OBSTRUCTIONS TO VISIBILITY.
      SKY/WX - SKY CONDITION AND SIGNIFICANT WEATHER.
      TMP - AIR TEMPERATURE.    DP   - DEWPOINT TEMPERATURE.
      RH  - RELATIVE HUMIDITY.  PRES - PRESSURE.
      HX  - HEAT INDEX.         WCI  - WIND CHILL INDEX.

*  THESE STATIONS ARE NOT NWS OR FAA STATIONS AND ARE NOT UNDER
   NWS QUALITY CONTROL.

LAZ040-048-061>063-065-066-069-010000-
SOUTHEAST LOUISIANA

CITY           SKY/WX    TMP DP  RH WIND       PRES   REMARKS
N.O. AUDUBON   NOT AVBL
N.O. INTL ARPT PTSUNNY   89  74  60 SE10      30.03R HX  98
N.O. LAKEFRONT MOSUNNY   89  74  60 SE12      30.03S HX  98
N.O. DOWNTOWN* FAIR      90  73  58 SE6       30.04R HX  98
SLIDELL        SUNNY     88  73  61 SE8       30.04R HX  95
BATON ROUGE    MOSUNNY   90  70  51 S8        30.01S HX  95
BOOTHVILLE     SUNNY     87  75  67 SE10      30.05S HX  96
BELLE CHASSE   MOSUNNY   88  75  65 SE13      30.02S HX  97
BOGALUSA*      FAIR      90  68  48 S7        30.05S
GALLIANO*      NOT AVBL
NEW ROADS*     FAIR      87  75  66 MISG      30.01S HX  96
GONZALES*      FAIR      89  76  65 E5        30.01S HX 100
HAMMOND*       NOT AVBL
HOUMA*         MOSUNNY   90  73  58 SE12      30.03R HX  98
PORT FOURCHON* NOT AVBL

$$

LAZ041-044-053-054-010000-
SOUTHWEST LOUISIANA

CITY           SKY/WX    TMP DP  RH WIND       PRES   REMARKS
LAKE CHARLES   CLOUDY    82  72  71 S5        30.00F
LAFAYETTE      MOSUNNY   88  74  63 S13G20    30.01S HX  96
PATTERSON      MOSUNNY   86  75  70 SE7       30.05S HX  95
SALT POINT       N/A     90  77  65 SE7       30.01S HX 103
NEW IBERIA     MOSUNNY   88  75  65 S10       30.02S HX  97
CHENAULT AIRPK PTSUNNY   82  72  69 S8        30.01

$$

LAZ027-028-010000-
CENTRAL LOUISIANA

CITY           SKY/WX    TMP DP  RH WIND       PRES   REMARKS
FORT POLK      LGT RAIN  79  71  76 SE6G16    30.01F
ALEXANDRIA INT CLOUDY    76  70  82 SE8       29.99S
ALEXANDRIA     CLOUDY    83  72  69 VRB3      30.02R

$$

LAZ001-002-010000-
NORTHWEST LOUISIANA

CITY           SKY/WX    TMP DP  RH WIND       PRES   REMARKS
SHREVEPORT     PTSUNNY   85  70  60 S18G25    29.97R
BARKSDALE AFB  PTSUNNY   88  71  58 S16       29.97S
DTN SHREVEPORT PTSUNNY   86  72  62 S14       29.96S

$$

LAZ014-016-010000-
NORTHEAST LOUISIANA

CITY           SKY/WX    TMP DP  RH WIND       PRES   REMARKS
MONROE         PTSUNNY   85  76  74 S6        30.01S
TALLULAH       PTSUNNY   86  74  67 S8        30.02S

$$




USA.gov is the U.S. government's official web portal to all federal, state and local government web resources and services.